Time,TemperatureF,DewpointF,PressureIn,WindDirection,WindDirectionDegrees,WindSpeedMPH,WindSpeedGustMPH,Humidity,HourlyPrecipIn,Conditions,Clouds,dailyrainin,SoftwareType,DateUTC
2013-07-19 00:01:00,48.9,39.0,25.88,SE,135,0.0,2.0,69,0.00,,,0.00,Rainwise IP-100,2013-07-19 07:01:00,
2013-07-19 00:06:00,48.7,39.0,25.88,SE,135,0.0,2.0,69,0.00,,,0.00,Rainwise IP-100,2013-07-19 07:06:00,
2013-07-19 00:11:00,48.6,39.0,25.87,SE,135,0.0,2.0,68,0.00,,,0.00,Rainwise IP-100,2013-07-19 07:11:00,
2013-07-19 00:16:00,48.5,39.0,25.87,SE,135,1.0,2.0,68,0.00,,,0.00,Rainwise IP-100,2013-07-19 07:16:00,
2013-07-19 00:21:00,48.5,39.0,25.87,SE,135,0.0,2.0,68,0.00,,,0.00,Rainwise IP-100,2013-07-19 07:21:00,
2013-07-19 00:26:00,48.4,38.0,25.87,SE,135,0.0,2.0,68,0.00,,,0.00,Rainwise IP-100,2013-07-19 07:26:00,
2013-07-19 00:31:00,48.4,38.0,25.87,SE,135,0.0,3.0,68,0.00,,,0.00,Rainwise IP-100,2013-07-19 07:31:00,
2013-07-19 00:36:00,48.3,38.0,25.87,SE,135,0.0,2.0,68,0.00,,,0.00,Rainwise IP-100,2013-07-19 07:36:00,
2013-07-19 00:41:00,48.2,38.0,25.87,SE,135,0.0,2.0,69,0.00,,,0.00,Rainwise IP-100,2013-07-19 07:41:00,
2013-07-19 00:46:00,48.2,38.0,25.87,SE,135,0.0,2.0,69,0.00,,,0.00,Rainwise IP-100,2013-07-19 07:46:00,
2013-07-19 00:51:00,48.2,38.0,25.87,SE,135,0.0,1.0,69,0.00,,,0.00,Rainwise IP-100,2013-07-19 07:51:00,
2013-07-19 00:56:00,48.2,39.0,25.87,SE,135,1.0,1.0,70,0.00,,,0.00,Rainwise IP-100,2013-07-19 07:56:00,
2013-07-19 01:01:00,48.2,38.0,25.87,SE,135,1.0,2.0,69,0.00,,,0.00,Rainwise IP-100,2013-07-19 08:01:00,
2013-07-19 01:06:00,48.3,38.0,25.86,SE,135,1.0,2.0,68,0.00,,,0.00,Rainwise IP-100,2013-07-19 08:06:00,
2013-07-19 01:11:00,48.2,38.0,25.86,SE,135,0.0,3.0,68,0.00,,,0.00,Rainwise IP-100,2013-07-19 08:11:00,
2013-07-19 01:16:00,48.1,38.0,25.87,SE,135,0.0,2.0,67,0.00,,,0.00,Rainwise IP-100,2013-07-19 08:16:00,
2013-07-19 01:21:00,47.8,37.0,25.86,SSE,157,0.0,3.0,66,0.00,,,0.00,Rainwise IP-100,2013-07-19 08:21:00,
2013-07-19 01:26:00,47.6,37.0,25.86,SSE,157,1.0,2.0,66,0.00,,,0.00,Rainwise IP-100,2013-07-19 08:26:00,
2013-07-19 01:31:00,47.6,37.0,25.86,SSE,157,0.0,3.0,66,0.00,,,0.00,Rainwise IP-100,2013-07-19 08:31:00,
2013-07-19 01:36:00,47.5,37.0,25.86,SSE,157,1.0,2.0,66,0.00,,,0.00,Rainwise IP-100,2013-07-19 08:36:00,
2013-07-19 01:41:00,47.3,36.0,25.86,SSE,157,1.0,2.0,66,0.00,,,0.00,Rainwise IP-100,2013-07-19 08:41:00,
2013-07-19 01:46:00,47.3,36.0,25.87,SSE,157,0.0,2.0,66,0.00,,,0.00,Rainwise IP-100,2013-07-19 08:46:00,
2013-07-19 01:51:00,47.3,36.0,25.86,SSE,157,1.0,1.0,65,0.00,,,0.00,Rainwise IP-100,2013-07-19 08:51:00,
2013-07-19 01:56:00,47.3,35.0,25.86,SE,135,3.0,3.0,64,0.00,,,0.00,Rainwise IP-100,2013-07-19 08:56:00,
2013-07-19 02:00:00,47.3,35.0,25.86,SSE,157,2.0,2.0,62,0.00,,,0.00,Rainwise IP-100,2013-07-19 09:00:00,
2013-07-19 02:05:00,47.3,33.0,25.86,SSE,157,1.0,3.0,60,0.00,,,0.00,Rainwise IP-100,2013-07-19 09:05:00,
2013-07-19 02:10:00,47.3,35.0,25.86,SSE,157,2.0,2.0,61,0.00,,,0.00,Rainwise IP-100,2013-07-19 09:10:00,
2013-07-19 02:13:00,47.2,35.0,25.86,SSE,157,0.0,3.0,61,0.00,,,0.00,Rainwise IP-100,2013-07-19 09:13:00,
2013-07-19 02:18:00,47.2,35.0,25.86,SSE,157,2.0,2.0,62,0.00,,,0.00,Rainwise IP-100,2013-07-19 09:18:00,
2013-07-19 02:23:00,47.2,35.0,25.86,SSE,157,1.0,2.0,62,0.00,,,0.00,Rainwise IP-100,2013-07-19 09:23:00,
2013-07-19 02:28:00,47.2,35.0,25.86,SSE,157,2.0,2.0,62,0.00,,,0.00,Rainwise IP-100,2013-07-19 09:28:00,
2013-07-19 02:33:00,47.3,33.0,25.86,SSE,157,0.0,3.0,60,0.00,,,0.00,Rainwise IP-100,2013-07-19 09:33:00,
2013-07-19 02:38:00,47.2,33.0,25.86,SSE,157,1.0,2.0,59,0.00,,,0.00,Rainwise IP-100,2013-07-19 09:38:00,
2013-07-19 02:43:00,47.1,33.0,25.86,SE,135,0.0,2.0,58,0.00,,,0.00,Rainwise IP-100,2013-07-19 09:43:00,
2013-07-19 02:48:00,47.0,33.0,25.86,SE,135,2.0,2.0,58,0.00,,,0.00,Rainwise IP-100,2013-07-19 09:48:00,
2013-07-19 02:53:00,46.9,32.0,25.86,SE,135,2.0,3.0,57,0.00,,,0.00,Rainwise IP-100,2013-07-19 09:53:00,
2013-07-19 02:58:00,46.8,32.0,25.86,SE,135,0.0,3.0,56,0.00,,,0.00,Rainwise IP-100,2013-07-19 09:58:00,
2013-07-19 03:03:00,46.8,32.0,25.85,SE,135,0.0,3.0,55,0.00,,,0.00,Rainwise IP-100,2013-07-19 10:03:00,
2013-07-19 03:08:00,46.6,32.0,25.86,SE,135,2.0,2.0,55,0.00,,,0.00,Rainwise IP-100,2013-07-19 10:08:00,
2013-07-19 03:13:00,46.5,31.0,25.86,SE,135,1.0,3.0,54,0.00,,,0.00,Rainwise IP-100,2013-07-19 10:13:00,
2013-07-19 03:18:00,46.6,31.0,25.86,SE,135,2.0,3.0,54,0.00,,,0.00,Rainwise IP-100,2013-07-19 10:18:00,
2013-07-19 03:22:00,46.6,31.0,25.85,SE,135,0.0,3.0,54,0.00,,,0.00,Rainwise IP-100,2013-07-19 10:22:00,
2013-07-19 03:27:00,46.5,31.0,25.86,SE,135,0.0,2.0,54,0.00,,,0.00,Rainwise IP-100,2013-07-19 10:27:00,
2013-07-19 03:32:00,46.5,31.0,25.86,SE,135,3.0,3.0,54,0.00,,,0.00,Rainwise IP-100,2013-07-19 10:32:00,
2013-07-19 03:37:00,46.5,31.0,25.86,SE,135,1.0,2.0,54,0.00,,,0.00,Rainwise IP-100,2013-07-19 10:37:00,
2013-07-19 03:42:00,46.4,31.0,25.86,SE,135,0.0,1.0,55,0.00,,,0.00,Rainwise IP-100,2013-07-19 10:42:00,
2013-07-19 03:47:00,46.2,31.0,25.86,SE,135,0.0,3.0,55,0.00,,,0.00,Rainwise IP-100,2013-07-19 10:47:00,
2013-07-19 03:52:00,46.1,31.0,25.86,SE,135,1.0,3.0,56,0.00,,,0.00,Rainwise IP-100,2013-07-19 10:52:00,
2013-07-19 03:57:00,46.1,31.0,25.85,SE,135,2.0,3.0,55,0.00,,,0.00,Rainwise IP-100,2013-07-19 10:57:00,
2013-07-19 04:02:00,46.0,31.0,25.85,SE,135,1.0,3.0,55,0.00,,,0.00,Rainwise IP-100,2013-07-19 11:02:00,
2013-07-19 04:07:00,45.9,31.0,25.85,SE,135,2.0,3.0,55,0.00,,,0.00,Rainwise IP-100,2013-07-19 11:07:00,
2013-07-19 04:12:00,45.8,31.0,25.85,SE,135,1.0,3.0,55,0.00,,,0.00,Rainwise IP-100,2013-07-19 11:12:00,
2013-07-19 04:17:00,45.9,31.0,25.85,SE,135,2.0,3.0,55,0.00,,,0.00,Rainwise IP-100,2013-07-19 11:17:00,
2013-07-19 04:22:00,46.0,31.0,25.86,SE,135,0.0,3.0,55,0.00,,,0.00,Rainwise IP-100,2013-07-19 11:22:00,
2013-07-19 04:27:00,46.0,31.0,25.85,SE,135,2.0,3.0,54,0.00,,,0.00,Rainwise IP-100,2013-07-19 11:27:00,
2013-07-19 04:32:00,45.9,29.0,25.85,SE,135,0.0,3.0,53,0.00,,,0.00,Rainwise IP-100,2013-07-19 11:32:00,
2013-07-19 04:37:00,45.9,31.0,25.85,SE,135,2.0,3.0,54,0.00,,,0.00,Rainwise IP-100,2013-07-19 11:37:00,
2013-07-19 04:42:00,45.9,31.0,25.85,SSE,157,2.0,2.0,54,0.00,,,0.00,Rainwise IP-100,2013-07-19 11:42:00,
2013-07-19 04:47:00,45.8,31.0,25.86,SSE,157,0.0,3.0,55,0.00,,,0.00,Rainwise IP-100,2013-07-19 11:47:00,
2013-07-19 04:52:00,45.7,31.0,25.86,SSE,157,1.0,3.0,56,0.00,,,0.00,Rainwise IP-100,2013-07-19 11:52:00,
2013-07-19 04:57:00,45.6,31.0,25.86,SSE,157,0.0,4.0,56,0.00,,,0.00,Rainwise IP-100,2013-07-19 11:57:00,
2013-07-19 05:02:00,45.6,31.0,25.85,SE,135,1.0,3.0,56,0.00,,,0.00,Rainwise IP-100,2013-07-19 12:02:00,
2013-07-19 05:07:00,45.7,31.0,25.86,SE,135,0.0,3.0,56,0.00,,,0.00,Rainwise IP-100,2013-07-19 12:07:00,
2013-07-19 05:12:00,45.7,31.0,25.85,SE,135,1.0,3.0,56,0.00,,,0.00,Rainwise IP-100,2013-07-19 12:12:00,
2013-07-19 05:17:00,45.6,32.0,25.86,SSE,157,2.0,3.0,57,0.00,,,0.00,Rainwise IP-100,2013-07-19 12:17:00,
2013-07-19 05:22:00,45.5,32.0,25.86,SE,135,2.0,3.0,58,0.00,,,0.00,Rainwise IP-100,2013-07-19 12:22:00,
2013-07-19 05:27:00,45.6,32.0,25.85,SE,135,2.0,3.0,57,0.00,,,0.00,Rainwise IP-100,2013-07-19 12:27:00,
2013-07-19 05:32:00,45.7,31.0,25.86,SE,135,2.0,2.0,56,0.00,,,0.00,Rainwise IP-100,2013-07-19 12:32:00,
2013-07-19 05:37:00,45.6,31.0,25.85,SE,135,2.0,3.0,55,0.00,,,0.00,Rainwise IP-100,2013-07-19 12:37:00,
2013-07-19 05:42:00,45.5,31.0,25.85,SE,135,2.0,3.0,55,0.00,,,0.00,Rainwise IP-100,2013-07-19 12:42:00,
2013-07-19 05:47:00,45.5,31.0,25.85,SE,135,3.0,3.0,55,0.00,,,0.00,Rainwise IP-100,2013-07-19 12:47:00,
2013-07-19 05:52:00,45.4,31.0,25.86,SE,135,2.0,4.0,55,0.00,,,0.00,Rainwise IP-100,2013-07-19 12:52:00,
2013-07-19 05:57:00,45.4,31.0,25.86,SE,135,1.0,3.0,56,0.00,,,0.00,Rainwise IP-100,2013-07-19 12:57:00,
2013-07-19 06:02:00,45.4,31.0,25.86,SE,135,2.0,3.0,56,0.00,,,0.00,Rainwise IP-100,2013-07-19 13:02:00,
2013-07-19 06:07:00,45.4,31.0,25.86,SE,135,2.0,3.0,56,0.00,,,0.00,Rainwise IP-100,2013-07-19 13:07:00,
2013-07-19 06:12:00,45.4,31.0,25.86,SE,135,0.0,3.0,58,0.00,,,0.00,Rainwise IP-100,2013-07-19 13:12:00,
2013-07-19 06:17:00,45.4,32.0,25.86,SE,135,2.0,3.0,59,0.00,,,0.00,Rainwise IP-100,2013-07-19 13:17:00,
2013-07-19 06:22:00,45.4,32.0,25.86,SSE,157,2.0,3.0,59,0.00,,,0.00,Rainwise IP-100,2013-07-19 13:22:00,
2013-07-19 06:27:00,45.5,33.0,25.86,SSE,157,1.0,3.0,60,0.00,,,0.00,Rainwise IP-100,2013-07-19 13:27:00,
2013-07-19 06:32:00,45.5,33.0,25.86,SSE,157,0.0,2.0,61,0.00,,,0.00,Rainwise IP-100,2013-07-19 13:32:00,
2013-07-19 06:37:00,45.5,33.0,25.86,SE,135,2.0,2.0,61,0.00,,,0.00,Rainwise IP-100,2013-07-19 13:37:00,
2013-07-19 06:42:00,45.5,33.0,25.86,SE,135,1.0,2.0,62,0.00,,,0.00,Rainwise IP-100,2013-07-19 13:42:00,
2013-07-19 06:47:00,45.5,35.0,25.86,SE,135,1.0,1.0,64,0.00,,,0.00,Rainwise IP-100,2013-07-19 13:47:00,
2013-07-19 06:52:00,45.4,35.0,25.86,SE,135,0.0,3.0,65,0.00,,,0.00,Rainwise IP-100,2013-07-19 13:52:00,
2013-07-19 06:57:00,45.5,35.0,25.86,SE,135,0.0,3.0,65,0.00,,,0.00,Rainwise IP-100,2013-07-19 13:57:00,
2013-07-19 07:02:00,45.7,35.0,25.86,SE,135,2.0,2.0,66,0.00,,,0.00,Rainwise IP-100,2013-07-19 14:02:00,
2013-07-19 07:07:00,45.9,35.0,25.86,SE,135,0.0,2.0,66,0.00,,,0.00,Rainwise IP-100,2013-07-19 14:07:00,
2013-07-19 07:12:00,46.1,35.0,25.86,SE,135,2.0,2.0,66,0.00,,,0.00,Rainwise IP-100,2013-07-19 14:12:00,
2013-07-19 07:17:00,46.1,35.0,25.86,SE,135,1.0,2.0,66,0.00,,,0.00,Rainwise IP-100,2013-07-19 14:17:00,
2013-07-19 07:22:00,46.1,36.0,25.86,SE,135,2.0,3.0,67,0.00,,,0.00,Rainwise IP-100,2013-07-19 14:22:00,
2013-07-19 07:27:00,46.2,36.0,25.86,SE,135,3.0,3.0,67,0.00,,,0.00,Rainwise IP-100,2013-07-19 14:27:00,
2013-07-19 07:32:00,46.3,36.0,25.86,SE,135,0.0,3.0,67,0.00,,,0.00,Rainwise IP-100,2013-07-19 14:32:00,
2013-07-19 07:37:00,46.3,36.0,25.86,SE,135,0.0,3.0,67,0.00,,,0.00,Rainwise IP-100,2013-07-19 14:37:00,
2013-07-19 07:42:00,46.1,36.0,25.86,SE,135,2.0,2.0,69,0.00,,,0.00,Rainwise IP-100,2013-07-19 14:42:00,
2013-07-19 07:47:00,45.8,37.0,25.86,SE,135,3.0,3.0,71,0.00,,,0.00,Rainwise IP-100,2013-07-19 14:47:00,
2013-07-19 07:52:00,45.9,37.0,25.86,SE,135,1.0,3.0,71,0.00,,,0.00,Rainwise IP-100,2013-07-19 14:52:00,
2013-07-19 07:57:00,46.3,37.0,25.86,SE,135,3.0,3.0,70,0.00,,,0.00,Rainwise IP-100,2013-07-19 14:57:00,
2013-07-19 08:02:00,46.9,36.0,25.86,SE,135,3.0,4.0,67,0.00,,,0.00,Rainwise IP-100,2013-07-19 15:02:00,
2013-07-19 08:07:00,47.3,36.0,25.86,ESE,112,2.0,3.0,65,0.00,,,0.00,Rainwise IP-100,2013-07-19 15:07:00,
2013-07-19 08:12:00,47.3,35.0,25.86,ESE,112,2.0,3.0,64,0.00,,,0.00,Rainwise IP-100,2013-07-19 15:12:00,
2013-07-19 08:17:00,47.3,35.0,25.86,SE,135,4.0,4.0,64,0.00,,,0.00,Rainwise IP-100,2013-07-19 15:17:00,
2013-07-19 08:22:00,47.5,36.0,25.86,ESE,112,3.0,3.0,64,0.00,,,0.00,Rainwise IP-100,2013-07-19 15:22:00,
2013-07-19 08:27:00,47.9,37.0,25.86,ESE,112,2.0,3.0,64,0.00,,,0.00,Rainwise IP-100,2013-07-19 15:27:00,
2013-07-19 08:32:00,48.5,37.0,25.86,ESE,112,3.0,3.0,64,0.00,,,0.00,Rainwise IP-100,2013-07-19 15:32:00,
2013-07-19 08:37:00,49.0,37.0,25.86,ESE,112,3.0,3.0,64,0.00,,,0.00,Rainwise IP-100,2013-07-19 15:37:00,
2013-07-19 08:42:00,49.5,38.0,25.86,ESE,112,2.0,3.0,63,0.00,,,0.00,Rainwise IP-100,2013-07-19 15:42:00,
2013-07-19 08:47:00,50.4,38.0,25.86,ESE,112,2.0,2.0,61,0.00,,,0.00,Rainwise IP-100,2013-07-19 15:47:00,
2013-07-19 08:52:00,51.7,37.0,25.86,East,90,0.0,2.0,56,0.00,,,0.00,Rainwise IP-100,2013-07-19 15:52:00,
2013-07-19 08:57:00,53.2,36.0,25.86,East,90,0.0,1.0,53,0.00,,,0.00,Rainwise IP-100,2013-07-19 15:57:00,
2013-07-19 09:02:00,54.0,36.0,25.86,ESE,112,2.0,2.0,51,0.00,,,0.00,Rainwise IP-100,2013-07-19 16:02:00,
2013-07-19 09:07:00,54.6,37.0,25.86,East,90,0.0,2.0,50,0.00,,,0.00,Rainwise IP-100,2013-07-19 16:07:00,
2013-07-19 09:12:00,55.5,37.0,25.86,East,90,0.0,2.0,48,0.00,,,0.00,Rainwise IP-100,2013-07-19 16:12:00,
2013-07-19 09:17:00,56.8,36.0,25.86,East,90,0.0,0.0,46,0.00,,,0.00,Rainwise IP-100,2013-07-19 16:17:00,
2013-07-19 09:22:00,57.8,36.0,25.87,ESE,112,0.0,2.0,44,0.00,,,0.00,Rainwise IP-100,2013-07-19 16:22:00,
2013-07-19 09:27:00,58.6,36.0,25.87,ENE,67,1.0,2.0,42,0.00,,,0.00,Rainwise IP-100,2013-07-19 16:27:00,
2013-07-19 09:32:00,59.7,35.0,25.87,East,90,0.0,1.0,40,0.00,,,0.00,Rainwise IP-100,2013-07-19 16:32:00,
2013-07-19 09:37:00,60.7,36.0,25.87,ESE,112,0.0,1.0,40,0.00,,,0.00,Rainwise IP-100,2013-07-19 16:37:00,
2013-07-19 09:42:00,61.8,36.0,25.86,East,90,0.0,1.0,39,0.00,,,0.00,Rainwise IP-100,2013-07-19 16:42:00,
2013-07-19 09:47:00,62.6,37.0,25.87,ESE,112,1.0,1.0,39,0.00,,,0.00,Rainwise IP-100,2013-07-19 16:47:00,
2013-07-19 09:52:00,63.2,38.0,25.86,NNE,22,0.0,3.0,39,0.00,,,0.00,Rainwise IP-100,2013-07-19 16:52:00,
2013-07-19 09:57:00,63.8,38.0,25.86,NNE,22,0.0,0.0,39,0.00,,,0.00,Rainwise IP-100,2013-07-19 16:57:00,
2013-07-19 10:02:00,64.1,38.0,25.86,SSE,157,0.0,2.0,39,0.00,,,0.00,Rainwise IP-100,2013-07-19 17:02:00,
2013-07-19 10:07:00,63.8,39.0,25.86,SSE,157,0.0,1.0,40,0.00,,,0.00,Rainwise IP-100,2013-07-19 17:07:00,
2013-07-19 10:12:00,64.1,38.0,25.86,SSE,157,0.0,1.0,39,0.00,,,0.00,Rainwise IP-100,2013-07-19 17:12:00,
2013-07-19 10:17:00,65.0,39.0,25.86,SSE,157,0.0,1.0,38,0.00,,,0.00,Rainwise IP-100,2013-07-19 17:17:00,
2013-07-19 10:22:00,65.2,39.0,25.86,SSE,157,0.0,1.0,39,0.00,,,0.00,Rainwise IP-100,2013-07-19 17:22:00,
2013-07-19 10:27:00,65.3,39.0,25.86,SSE,157,0.0,1.0,39,0.00,,,0.00,Rainwise IP-100,2013-07-19 17:27:00,
2013-07-19 10:32:00,65.6,40.0,25.86,SSE,157,0.0,1.0,39,0.00,,,0.00,Rainwise IP-100,2013-07-19 17:32:00,
2013-07-19 10:37:00,66.6,40.0,25.86,SSE,157,0.0,1.0,38,0.00,,,0.00,Rainwise IP-100,2013-07-19 17:37:00,
2013-07-19 10:42:00,68.2,40.0,25.86,NNE,22,0.0,4.0,36,0.00,,,0.00,Rainwise IP-100,2013-07-19 17:42:00,
2013-07-19 10:47:00,69.5,39.0,25.86,NNW,337,0.0,2.0,33,0.00,,,0.00,Rainwise IP-100,2013-07-19 17:47:00,
2013-07-19 10:52:00,70.3,37.0,25.86,NNW,337,0.0,3.0,30,0.00,,,0.00,Rainwise IP-100,2013-07-19 17:52:00,
2013-07-19 10:57:00,70.8,37.0,25.86,NNW,337,2.0,3.0,29,0.00,,,0.00,Rainwise IP-100,2013-07-19 17:57:00,
2013-07-19 11:02:00,71.1,36.0,25.86,NNW,337,2.0,5.0,27,0.00,,,0.00,Rainwise IP-100,2013-07-19 18:02:00,
2013-07-19 11:07:00,71.1,32.0,25.86,NW,315,5.0,6.0,24,0.00,,,0.00,Rainwise IP-100,2013-07-19 18:07:00,
2013-07-19 11:12:00,70.9,31.0,25.86,NNW,337,6.0,7.0,22,0.00,,,0.00,Rainwise IP-100,2013-07-19 18:12:00,
2013-07-19 11:17:00,70.7,29.0,25.86,NNW,337,4.0,7.0,21,0.00,,,0.00,Rainwise IP-100,2013-07-19 18:17:00,
2013-07-19 11:22:00,70.7,31.0,25.86,NNW,337,4.0,6.0,22,0.00,,,0.00,Rainwise IP-100,2013-07-19 18:22:00,
2013-07-19 11:27:00,71.2,31.0,25.86,WNW,292,2.0,4.0,22,0.00,,,0.00,Rainwise IP-100,2013-07-19 18:27:00,
2013-07-19 11:32:00,71.8,28.0,25.86,WNW,292,3.0,7.0,19,0.00,,,0.00,Rainwise IP-100,2013-07-19 18:32:00,
2013-07-19 11:37:00,72.1,26.0,25.85,NNW,337,4.0,7.0,18,0.00,,,0.00,Rainwise IP-100,2013-07-19 18:37:00,
2013-07-19 11:42:00,72.2,26.0,25.86,West,270,0.0,9.0,17,0.00,,,0.00,Rainwise IP-100,2013-07-19 18:42:00,
2013-07-19 11:47:00,72.4,26.0,25.86,NNW,337,8.0,8.0,17,0.00,,,0.00,Rainwise IP-100,2013-07-19 18:47:00,
2013-07-19 11:52:00,72.7,26.0,25.85,NNW,337,6.0,9.0,17,0.00,,,0.00,Rainwise IP-100,2013-07-19 18:52:00,
2013-07-19 11:57:00,72.9,24.0,25.85,NW,315,7.0,8.0,16,0.00,,,0.00,Rainwise IP-100,2013-07-19 18:57:00,
2013-07-19 12:02:00,73.2,26.0,25.86,WNW,292,2.0,0.0,17,0.00,,,0.00,Rainwise IP-100,2013-07-19 19:02:00,
2013-07-19 12:07:00,73.4,31.0,25.85,NNW,337,4.0,0.0,21,0.00,,,0.00,Rainwise IP-100,2013-07-19 19:07:00,
2013-07-19 12:12:00,73.4,33.0,25.85,NNE,22,6.0,9.0,23,0.00,,,0.00,Rainwise IP-100,2013-07-19 19:12:00,
2013-07-19 12:17:00,73.2,35.0,25.85,NNW,337,3.0,0.0,24,0.00,,,0.00,Rainwise IP-100,2013-07-19 19:17:00,
2013-07-19 12:22:00,73.2,35.0,25.85,NNE,22,4.0,8.0,24,0.00,,,0.00,Rainwise IP-100,2013-07-19 19:22:00,
2013-07-19 12:27:00,73.6,36.0,25.85,North,360,4.0,0.0,25,0.00,,,0.00,Rainwise IP-100,2013-07-19 19:27:00,
2013-07-19 12:32:00,73.9,36.0,25.85,NNE,22,6.0,8.0,25,0.00,,,0.00,Rainwise IP-100,2013-07-19 19:32:00,
2013-07-19 12:37:00,74.1,37.0,25.84,NNW,337,4.0,0.0,26,0.00,,,0.00,Rainwise IP-100,2013-07-19 19:37:00,
2013-07-19 12:42:00,74.3,37.0,25.84,North,360,4.0,9.0,25,0.00,,,0.00,Rainwise IP-100,2013-07-19 19:42:00,
2013-07-19 12:47:00,74.3,36.0,25.84,NNW,337,8.0,9.0,24,0.00,,,0.00,Rainwise IP-100,2013-07-19 19:47:00,
2013-07-19 12:52:00,74.3,36.0,25.85,North,360,3.0,9.0,24,0.00,,,0.00,Rainwise IP-100,2013-07-19 19:52:00,
2013-07-19 12:57:00,74.3,36.0,25.85,NNW,337,6.0,0.0,24,0.00,,,0.00,Rainwise IP-100,2013-07-19 19:57:00,
2013-07-19 13:02:00,74.5,33.0,25.84,NNW,337,6.0,6.0,22,0.00,,,0.00,Rainwise IP-100,2013-07-19 20:02:00,
2013-07-19 13:07:00,74.5,31.0,25.84,North,360,8.0,8.0,20,0.00,,,0.00,Rainwise IP-100,2013-07-19 20:07:00,
2013-07-19 13:12:00,74.5,31.0,25.84,NNE,22,2.0,2.0,19,0.00,,,0.00,Rainwise IP-100,2013-07-19 20:12:00,
2013-07-19 13:17:00,74.8,29.0,25.85,North,360,4.0,9.0,18,0.00,,,0.00,Rainwise IP-100,2013-07-19 20:17:00,
2013-07-19 13:22:00,75.1,29.0,25.84,NNW,337,5.0,5.0,18,0.00,,,0.00,Rainwise IP-100,2013-07-19 20:22:00,
2013-07-19 13:27:00,75.2,29.0,25.84,NNE,22,5.0,8.0,18,0.00,,,0.00,Rainwise IP-100,2013-07-19 20:27:00,
2013-07-19 13:32:00,75.2,28.0,25.84,NW,315,1.0,9.0,17,0.00,,,0.00,Rainwise IP-100,2013-07-19 20:32:00,
2013-07-19 13:37:00,75.4,28.0,25.84,NW,315,2.0,0.0,17,0.00,,,0.00,Rainwise IP-100,2013-07-19 20:37:00,
2013-07-19 13:42:00,75.6,29.0,25.84,NNE,22,3.0,3.0,18,0.00,,,0.00,Rainwise IP-100,2013-07-19 20:42:00,
2013-07-19 13:47:00,75.7,29.0,25.84,NNW,337,7.0,0.0,18,0.00,,,0.00,Rainwise IP-100,2013-07-19 20:47:00,
2013-07-19 13:52:00,75.9,29.0,25.84,NNE,22,7.0,0.0,18,0.00,,,0.00,Rainwise IP-100,2013-07-19 20:52:00,
2013-07-19 13:56:00,76.0,29.0,25.84,North,360,9.0,9.0,18,0.00,,,0.00,Rainwise IP-100,2013-07-19 20:56:00,
2013-07-19 14:01:00,75.9,28.0,25.84,North,360,8.0,8.0,17,0.00,,,0.00,Rainwise IP-100,2013-07-19 21:01:00,
2013-07-19 14:06:00,75.9,29.0,25.84,NNW,337,4.0,0.0,18,0.00,,,0.00,Rainwise IP-100,2013-07-19 21:06:00,
2013-07-19 14:11:00,76.0,29.0,25.84,North,360,5.0,5.0,18,0.00,,,0.00,Rainwise IP-100,2013-07-19 21:11:00,
2013-07-19 14:16:00,75.9,28.0,25.84,NNW,337,2.0,2.0,17,0.00,,,0.00,Rainwise IP-100,2013-07-19 21:16:00,
2013-07-19 14:21:00,76.0,28.0,25.84,NNE,22,4.0,9.0,17,0.00,,,0.00,Rainwise IP-100,2013-07-19 21:21:00,
2013-07-19 14:26:00,76.0,28.0,25.84,NW,315,6.0,0.0,17,0.00,,,0.00,Rainwise IP-100,2013-07-19 21:26:00,
2013-07-19 14:31:00,76.0,28.0,25.84,ESE,112,0.0,1.0,17,0.00,,,0.00,Rainwise IP-100,2013-07-19 21:31:00,
2013-07-19 14:36:00,76.2,29.0,25.84,NNE,22,6.0,6.0,18,0.00,,,0.00,Rainwise IP-100,2013-07-19 21:36:00,
2013-07-19 14:41:00,76.3,31.0,25.84,NNW,337,7.0,7.0,19,0.00,,,0.00,Rainwise IP-100,2013-07-19 21:41:00,
2013-07-19 14:46:00,76.4,31.0,25.84,NNW,337,0.0,6.0,18,0.00,,,0.00,Rainwise IP-100,2013-07-19 21:46:00,
2013-07-19 14:51:00,76.4,29.0,25.84,NNW,337,9.0,9.0,17,0.00,,,0.00,Rainwise IP-100,2013-07-19 21:51:00,
2013-07-19 14:56:00,76.6,29.0,25.83,NNE,22,8.0,8.0,17,0.00,,,0.00,Rainwise IP-100,2013-07-19 21:56:00,
2013-07-19 15:01:00,76.7,31.0,25.84,NNW,337,7.0,7.0,18,0.00,,,0.00,Rainwise IP-100,2013-07-19 22:01:00,
2013-07-19 15:06:00,76.8,31.0,25.84,NNE,22,4.0,4.0,18,0.00,,,0.00,Rainwise IP-100,2013-07-19 22:06:00,
2013-07-19 15:11:00,76.9,29.0,25.84,NNW,337,0.0,1.0,17,0.00,,,0.00,Rainwise IP-100,2013-07-19 22:11:00,
2013-07-19 15:16:00,76.9,31.0,25.84,North,360,0.0,1.0,18,0.00,,,0.00,Rainwise IP-100,2013-07-19 22:16:00,
2013-07-19 15:21:00,76.8,32.0,25.84,NNW,337,9.0,9.0,19,0.00,,,0.00,Rainwise IP-100,2013-07-19 22:21:00,
2013-07-19 15:26:00,76.7,33.0,25.84,NNW,337,8.0,8.0,20,0.00,,,0.00,Rainwise IP-100,2013-07-19 22:26:00,
2013-07-19 15:31:00,76.6,32.0,25.84,NNW,337,8.0,8.0,20,0.00,,,0.00,Rainwise IP-100,2013-07-19 22:31:00,
2013-07-19 15:36:00,76.6,33.0,25.84,North,360,8.0,8.0,21,0.00,,,0.00,Rainwise IP-100,2013-07-19 22:36:00,
2013-07-19 15:41:00,76.8,35.0,25.84,NNW,337,4.0,4.0,21,0.00,,,0.00,Rainwise IP-100,2013-07-19 22:41:00,
2013-07-19 15:46:00,76.9,35.0,25.83,North,360,0.0,2.0,21,0.00,,,0.00,Rainwise IP-100,2013-07-19 22:46:00,
2013-07-19 15:51:00,76.9,35.0,25.83,NNW,337,0.0,1.0,21,0.00,,,0.00,Rainwise IP-100,2013-07-19 22:51:00,
2013-07-19 15:56:00,76.9,36.0,25.84,NNE,22,6.0,6.0,22,0.00,,,0.00,Rainwise IP-100,2013-07-19 22:56:00,
2013-07-19 16:01:00,77.0,36.0,25.84,North,360,0.0,1.0,22,0.00,,,0.00,Rainwise IP-100,2013-07-19 23:01:00,
2013-07-19 16:06:00,77.2,36.0,25.84,NNW,337,8.0,8.0,22,0.00,,,0.00,Rainwise IP-100,2013-07-19 23:06:00,
2013-07-19 16:11:00,77.1,37.0,25.84,NW,315,0.0,4.0,23,0.00,,,0.00,Rainwise IP-100,2013-07-19 23:11:00,
2013-07-19 16:16:00,76.9,37.0,25.84,NNW,337,4.0,4.0,23,0.00,,,0.00,Rainwise IP-100,2013-07-19 23:16:00,
2013-07-19 16:21:00,76.9,37.0,25.83,NNW,337,8.0,8.0,23,0.00,,,0.00,Rainwise IP-100,2013-07-19 23:21:00,
2013-07-19 16:26:00,77.0,37.0,25.83,NNW,337,8.0,8.0,23,0.00,,,0.00,Rainwise IP-100,2013-07-19 23:26:00,
2013-07-19 16:31:00,76.9,37.0,25.83,NNW,337,8.0,8.0,23,0.00,,,0.00,Rainwise IP-100,2013-07-19 23:31:00,
2013-07-19 16:36:00,76.9,36.0,25.84,NNW,337,0.0,0.0,22,0.00,,,0.00,Rainwise IP-100,2013-07-19 23:36:00,
2013-07-19 16:41:00,76.9,35.0,25.83,NNW,337,8.0,8.0,21,0.00,,,0.00,Rainwise IP-100,2013-07-19 23:41:00,
2013-07-19 16:46:00,76.8,35.0,25.84,NNE,22,6.0,6.0,21,0.00,,,0.00,Rainwise IP-100,2013-07-19 23:46:00,
2013-07-19 16:51:00,76.6,35.0,25.84,North,360,4.0,4.0,22,0.00,,,0.00,Rainwise IP-100,2013-07-19 23:51:00,
2013-07-19 16:56:00,76.6,35.0,25.83,North,360,0.0,4.0,22,0.00,,,0.00,Rainwise IP-100,2013-07-19 23:56:00,
2013-07-19 17:01:00,76.7,35.0,25.83,NNW,337,7.0,7.0,22,0.00,,,0.00,Rainwise IP-100,2013-07-20 00:01:00,
2013-07-19 17:06:00,76.8,35.0,25.82,NNW,337,5.0,5.0,22,0.00,,,0.00,Rainwise IP-100,2013-07-20 00:06:00,
2013-07-19 17:11:00,76.6,35.0,25.82,NNW,337,4.0,4.0,22,0.00,,,0.00,Rainwise IP-100,2013-07-20 00:11:00,
2013-07-19 17:16:00,76.5,36.0,25.83,North,360,7.0,7.0,23,0.00,,,0.00,Rainwise IP-100,2013-07-20 00:16:00,
2013-07-19 17:21:00,76.5,38.0,25.82,NNW,337,0.0,2.0,25,0.00,,,0.00,Rainwise IP-100,2013-07-20 00:21:00,
2013-07-19 17:26:00,76.6,39.0,25.82,NNW,337,8.0,8.0,26,0.00,,,0.00,Rainwise IP-100,2013-07-20 00:26:00,
2013-07-19 17:31:00,76.5,40.0,25.82,NNW,337,4.0,0.0,27,0.00,,,0.00,Rainwise IP-100,2013-07-20 00:31:00,
2013-07-19 17:36:00,76.5,41.0,25.83,NNW,337,3.0,9.0,28,0.00,,,0.00,Rainwise IP-100,2013-07-20 00:36:00,
2013-07-19 17:41:00,76.6,43.0,25.83,North,360,5.0,5.0,30,0.00,,,0.00,Rainwise IP-100,2013-07-20 00:41:00,
2013-07-19 17:46:00,76.3,44.0,25.83,NNE,22,5.0,9.0,32,0.00,,,0.00,Rainwise IP-100,2013-07-20 00:46:00,
2013-07-19 17:51:00,75.8,43.0,25.82,NNW,337,8.0,0.0,32,0.00,,,0.00,Rainwise IP-100,2013-07-20 00:51:00,
2013-07-19 17:56:00,75.5,43.0,25.82,NNW,337,6.0,0.0,32,0.00,,,0.00,Rainwise IP-100,2013-07-20 00:56:00,
2013-07-19 18:01:00,75.4,43.0,25.82,North,360,7.0,7.0,32,0.00,,,0.00,Rainwise IP-100,2013-07-20 01:01:00,
2013-07-19 18:06:00,75.4,43.0,25.83,NNE,22,6.0,6.0,32,0.00,,,0.00,Rainwise IP-100,2013-07-20 01:06:00,
2013-07-19 18:11:00,75.2,44.0,25.82,NNW,337,8.0,9.0,33,0.00,,,0.00,Rainwise IP-100,2013-07-20 01:11:00,
2013-07-19 18:16:00,74.8,45.0,25.82,NNW,337,7.0,7.0,35,0.00,,,0.00,Rainwise IP-100,2013-07-20 01:16:00,
2013-07-19 18:21:00,74.4,47.0,25.82,NNE,22,8.0,9.0,38,0.00,,,0.00,Rainwise IP-100,2013-07-20 01:21:00,
2013-07-19 18:26:00,74.1,47.0,25.82,NNW,337,5.0,8.0,39,0.00,,,0.00,Rainwise IP-100,2013-07-20 01:26:00,
2013-07-19 18:31:00,73.5,47.0,25.82,NNW,337,4.0,8.0,39,0.00,,,0.00,Rainwise IP-100,2013-07-20 01:31:00,
2013-07-19 18:36:00,72.5,47.0,25.82,NNW,337,4.0,8.0,41,0.00,,,0.00,Rainwise IP-100,2013-07-20 01:36:00,
2013-07-19 18:41:00,71.3,47.0,25.82,North,360,5.0,8.0,43,0.00,,,0.00,Rainwise IP-100,2013-07-20 01:41:00,
2013-07-19 18:46:00,70.0,47.0,25.83,NNE,22,2.0,8.0,45,0.00,,,0.00,Rainwise IP-100,2013-07-20 01:46:00,
2013-07-19 18:51:00,69.0,47.0,25.83,North,360,4.0,7.0,47,0.00,,,0.00,Rainwise IP-100,2013-07-20 01:51:00,
2013-07-19 18:56:00,68.1,49.0,25.83,NNW,337,4.0,7.0,50,0.00,,,0.00,Rainwise IP-100,2013-07-20 01:56:00,
2013-07-19 19:01:00,67.1,48.0,25.83,North,360,1.0,6.0,51,0.00,,,0.00,Rainwise IP-100,2013-07-20 02:01:00,
2013-07-19 19:06:00,66.6,49.0,25.83,North,360,3.0,4.0,53,0.00,,,0.00,Rainwise IP-100,2013-07-20 02:06:00,
2013-07-19 19:11:00,66.1,48.0,25.83,NNW,337,3.0,5.0,53,0.00,,,0.00,Rainwise IP-100,2013-07-20 02:11:00,
2013-07-19 19:16:00,65.5,48.0,25.83,NNW,337,3.0,7.0,54,0.00,,,0.00,Rainwise IP-100,2013-07-20 02:16:00,
2013-07-19 19:21:00,65.2,48.0,25.83,WNW,292,0.0,5.0,55,0.00,,,0.00,Rainwise IP-100,2013-07-20 02:21:00,
2013-07-19 19:26:00,64.9,48.0,25.83,NNE,22,4.0,6.0,55,0.00,,,0.00,Rainwise IP-100,2013-07-20 02:26:00,
2013-07-19 19:31:00,64.5,49.0,25.83,NNW,337,3.0,4.0,57,0.00,,,0.00,Rainwise IP-100,2013-07-20 02:31:00,
2013-07-19 19:36:00,64.1,49.0,25.83,WNW,292,0.0,3.0,58,0.00,,,0.00,Rainwise IP-100,2013-07-20 02:36:00,
2013-07-19 19:41:00,63.3,49.0,25.83,SSE,157,0.0,3.0,60,0.00,,,0.00,Rainwise IP-100,2013-07-20 02:41:00,
2013-07-19 19:46:00,62.5,49.0,25.84,SSW,202,2.0,3.0,61,0.00,,,0.00,Rainwise IP-100,2013-07-20 02:46:00,
2013-07-19 19:51:00,61.8,48.0,25.84,SSW,202,3.0,4.0,62,0.00,,,0.00,Rainwise IP-100,2013-07-20 02:51:00,
2013-07-19 19:56:00,61.1,48.0,25.84,SSW,202,0.0,3.0,63,0.00,,,0.00,Rainwise IP-100,2013-07-20 02:56:00,
2013-07-19 20:01:00,60.8,48.0,25.83,SSW,202,0.0,0.0,65,0.00,,,0.00,Rainwise IP-100,2013-07-20 03:01:00,
2013-07-19 20:06:00,60.4,49.0,25.83,SSW,202,0.0,0.0,66,0.00,,,0.00,Rainwise IP-100,2013-07-20 03:06:00,
2013-07-19 20:11:00,60.0,49.0,25.83,SSW,202,0.0,0.0,67,0.00,,,0.00,Rainwise IP-100,2013-07-20 03:11:00,
2013-07-19 20:16:00,59.8,49.0,25.84,SSW,202,0.0,0.0,68,0.00,,,0.00,Rainwise IP-100,2013-07-20 03:16:00,
2013-07-19 20:21:00,59.5,49.0,25.83,SSW,202,0.0,0.0,68,0.00,,,0.00,Rainwise IP-100,2013-07-20 03:21:00,
2013-07-19 20:26:00,59.2,49.0,25.84,SSW,202,0.0,0.0,69,0.00,,,0.00,Rainwise IP-100,2013-07-20 03:26:00,
2013-07-19 20:31:00,58.9,49.0,25.84,SSW,202,0.0,0.0,70,0.00,,,0.00,Rainwise IP-100,2013-07-20 03:31:00,
2013-07-19 20:36:00,58.4,49.0,25.83,SSW,202,0.0,3.0,71,0.00,,,0.00,Rainwise IP-100,2013-07-20 03:36:00,
2013-07-19 20:41:00,57.9,49.0,25.84,SSW,202,2.0,4.0,71,0.00,,,0.00,Rainwise IP-100,2013-07-20 03:41:00,
2013-07-19 20:46:00,57.3,48.0,25.84,SSW,202,0.0,3.0,72,0.00,,,0.00,Rainwise IP-100,2013-07-20 03:46:00,
2013-07-19 20:51:00,56.9,48.0,25.83,SSW,202,0.0,0.0,73,0.00,,,0.00,Rainwise IP-100,2013-07-20 03:51:00,
2013-07-19 20:56:00,56.6,48.0,25.84,SSW,202,0.0,0.0,73,0.00,,,0.00,Rainwise IP-100,2013-07-20 03:56:00,
2013-07-19 21:01:00,56.5,48.0,25.83,SSW,202,0.0,3.0,73,0.00,,,0.00,Rainwise IP-100,2013-07-20 04:01:00,
2013-07-19 21:06:00,56.2,47.0,25.83,SSW,202,0.0,0.0,73,0.00,,,0.00,Rainwise IP-100,2013-07-20 04:06:00,
2013-07-19 21:11:00,55.8,47.0,25.84,SSW,202,0.0,0.0,73,0.00,,,0.00,Rainwise IP-100,2013-07-20 04:11:00,
2013-07-19 21:16:00,55.5,47.0,25.84,SSW,202,0.0,0.0,74,0.00,,,0.00,Rainwise IP-100,2013-07-20 04:16:00,
2013-07-19 21:21:00,55.2,47.0,25.84,SSW,202,1.0,0.0,74,0.00,,,0.00,Rainwise IP-100,2013-07-20 04:21:00,
2013-07-19 21:26:00,54.9,47.0,25.84,SSW,202,0.0,1.0,74,0.00,,,0.00,Rainwise IP-100,2013-07-20 04:26:00,
2013-07-19 21:31:00,54.6,47.0,25.84,SSW,202,0.0,0.0,75,0.00,,,0.00,Rainwise IP-100,2013-07-20 04:31:00,
2013-07-19 21:36:00,54.4,47.0,25.84,SSW,202,0.0,0.0,75,0.00,,,0.00,Rainwise IP-100,2013-07-20 04:36:00,
2013-07-19 21:41:00,54.1,47.0,25.84,SSW,202,0.0,0.0,75,0.00,,,0.00,Rainwise IP-100,2013-07-20 04:41:00,
2013-07-19 21:46:00,53.8,46.0,25.84,SSW,202,0.0,0.0,75,0.00,,,0.00,Rainwise IP-100,2013-07-20 04:46:00,
2013-07-19 21:51:00,53.6,46.0,25.84,SSW,202,0.0,0.0,75,0.00,,,0.00,Rainwise IP-100,2013-07-20 04:51:00,
2013-07-19 21:56:00,53.3,45.0,25.84,SSW,202,0.0,0.0,75,0.00,,,0.00,Rainwise IP-100,2013-07-20 04:56:00,
2013-07-19 22:01:00,53.2,45.0,25.84,SSW,202,0.0,0.0,75,0.00,,,0.00,Rainwise IP-100,2013-07-20 05:01:00,
2013-07-19 22:06:00,53.0,45.0,25.84,SSW,202,0.0,0.0,75,0.00,,,0.00,Rainwise IP-100,2013-07-20 05:06:00,
2013-07-19 22:11:00,52.7,45.0,25.84,SSW,202,0.0,0.0,75,0.00,,,0.00,Rainwise IP-100,2013-07-20 05:11:00,
2013-07-19 22:16:00,52.6,45.0,25.84,SSW,202,0.0,2.0,75,0.00,,,0.00,Rainwise IP-100,2013-07-20 05:16:00,
2013-07-19 22:21:00,52.4,44.0,25.84,SSW,202,0.0,0.0,75,0.00,,,0.00,Rainwise IP-100,2013-07-20 05:21:00,
2013-07-19 22:26:00,52.2,44.0,25.84,SSW,202,0.0,0.0,75,0.00,,,0.00,Rainwise IP-100,2013-07-20 05:26:00,
2013-07-19 22:31:00,52.0,44.0,25.84,SSW,202,0.0,0.0,75,0.00,,,0.00,Rainwise IP-100,2013-07-20 05:31:00,
2013-07-19 22:36:00,51.9,44.0,25.84,SSW,202,0.0,0.0,75,0.00,,,0.00,Rainwise IP-100,2013-07-20 05:36:00,
2013-07-19 22:41:00,51.8,44.0,25.84,SSW,202,0.0,0.0,74,0.00,,,0.00,Rainwise IP-100,2013-07-20 05:41:00,
2013-07-19 22:46:00,51.7,44.0,25.84,SSW,202,0.0,0.0,74,0.00,,,0.00,Rainwise IP-100,2013-07-20 05:46:00,
2013-07-19 22:51:00,51.5,44.0,25.84,SSW,202,0.0,0.0,74,0.00,,,0.00,Rainwise IP-100,2013-07-20 05:51:00,
2013-07-19 22:56:00,51.3,44.0,25.83,SSW,202,0.0,0.0,75,0.00,,,0.00,Rainwise IP-100,2013-07-20 05:56:00,
2013-07-19 23:01:00,51.2,44.0,25.83,SSW,202,0.0,0.0,75,0.00,,,0.00,Rainwise IP-100,2013-07-20 06:01:00,
2013-07-19 23:06:00,51.0,44.0,25.83,SSW,202,0.0,0.0,75,0.00,,,0.00,Rainwise IP-100,2013-07-20 06:06:00,
2013-07-19 23:11:00,50.9,43.0,25.83,SSW,202,0.0,0.0,74,0.00,,,0.00,Rainwise IP-100,2013-07-20 06:11:00,
2013-07-19 23:16:00,50.8,42.0,25.83,SSW,202,0.0,0.0,74,0.00,,,0.00,Rainwise IP-100,2013-07-20 06:16:00,
2013-07-19 23:21:00,50.6,42.0,25.83,SSW,202,0.0,0.0,74,0.00,,,0.00,Rainwise IP-100,2013-07-20 06:21:00,
2013-07-19 23:26:00,50.6,42.0,25.82,SSW,202,0.0,0.0,74,0.00,,,0.00,Rainwise IP-100,2013-07-20 06:26:00,
2013-07-19 23:31:00,50.4,42.0,25.82,SSW,202,0.0,0.0,74,0.00,,,0.00,Rainwise IP-100,2013-07-20 06:31:00,
2013-07-19 23:36:00,50.2,42.0,25.83,SSW,202,0.0,0.0,74,0.00,,,0.00,Rainwise IP-100,2013-07-20 06:36:00,
2013-07-19 23:41:00,50.2,42.0,25.83,SSW,202,0.0,0.0,74,0.00,,,0.00,Rainwise IP-100,2013-07-20 06:41:00,
2013-07-19 23:46:00,50.2,41.0,25.82,SSW,202,0.0,1.0,73,0.00,,,0.00,Rainwise IP-100,2013-07-20 06:46:00,
2013-07-19 23:51:00,50.0,41.0,25.82,SSW,202,0.0,0.0,73,0.00,,,0.00,Rainwise IP-100,2013-07-20 06:51:00,
2013-07-19 23:56:00,50.0,41.0,25.82,SSW,202,0.0,0.0,73,0.00,,,0.00,Rainwise IP-100,2013-07-20 06:56:00,